Location: Cold Norton
(51.6667°N, 0.6667°E)
Time: 06:54:57
(UTC+00:00)

AQUARIUS - Pass Details

Date: 18 November 2025
Orbit: 634 x 636 km, 98.0° (Epoch: 10 December)

Event Time Altitude Azimuth Distance (km) Brightness Sun altitude
Rises 17:42:56 0° 169° (S) 2,923 7.5 -15.2°
Reaches altitude 10° 17:45:07 10° 172° (S) 2,019 6.7 -15.5°
Maximum altitude 17:49:31 72° 257° (WSW) 673 4.4 -16.2°
Drops below altitude 10° 17:53:57 10° 342° (NNW) 2,034 6.8 -16.8°
Sets 17:56:10 0° 345° (NNW) 2,947 7.6 -17.2°
